Theta_e
353 353 347 346 345 346 354 354 349 353 353 352 349 347 344 345 346 344 342 338 315 315 315 313 319 324 324 325 326 327 327 328 327 323 321 320 319 321 317 321 323 322 322
358 356 352 349 350 346 347 349 349 352 355 352 350 347 345 346 345 344 338 331 313 313 312 310 312 313 316 319 317 317 321 326 324 325 325 325 321 326 324 323 323 322 322
356 356 355 353 352 353 349 352 352 352 353 353 352 352 349 347 345 345 338 331 314 312 311 312 312 314 319 322 323 323 319 322 324 324 324 325 324 322 323 322 323 322 323
354 356 357 357 355 355 352 352 353 356 354 353 353 352 349 347 345 345 340 333 313 311 311 312 315 313 311 313 316 316 321 322 324 324 324 322 323 325 323 321 324 323 321
355 356 356 357 357 356 357 356 355 357 355 354 353 350 348 347 345 342 340 333 312 312 311 315 314 313 313 320 322 323 325 326 324 323 324 324 322 324 322 315 323 321 321
358 360 358 358 356 356 354 357 356 357 356 353 352 348 347 348 342 340 339 314 311 310 310 318 312 311 313 321 314 315 324 325 324 326 325 326 326 323 313 313 321 314 316
359 358 360 361 361 357 356 356 356 354 356 353 351 347 346 344 341 340 323 331 317 310 311 315 312 312 314 314 314 314 315 315 317 319 320 323 322 315 313 313 316 318 316
361 353 350 351 351 356 357 354 355 354 354 353 352 345 344 343 343 339 328 330 320 312 316 319 324 320 314 316 321 325 326 326 316 322 325 316 316 317 317 316 318 317 317
360 358 355 357 355 355 358 357 356 354 355 353 353 345 342 341 340 336 333 333 323 314 314 318 322 321 313 316 327 327 326 325 324 324 319 320 319 319 319 318 317 316 316
362 355 349 351 344 353 354 355 355 355 354 354 350 346 343 339 338 336 334 329 321 316 313 321 320 314 313 315 324 326 326 326 324 321 322 323 322 321 320 319 318 317 315
363 359 360 355 342 341 341 342 352 354 355 353 350 347 344 342 338 336 334 324 322 315 313 318 317 316 314 315 317 320 326 327 326 320 325 326 323 321 320 320 318 316 315
360 360 358 358 359 355 348 347 355 355 354 351 349 346 343 343 341 336 332 323 323 320 320 321 319 315 313 313 315 316 315 316 315 324 324 324 322 321 320 319 318 317 316
340 352 360 359 360 361 358 355 355 354 352 349 340 334 338 344 340 338 331 322 322 321 325 325 325 325 324 318 312 311 314 315 317 324 324 323 322 321 320 319 318 318 316
340 338 348 355 358 360 358 357 354 354 351 349 345 335 337 343 342 338 329 320 321 321 324 325 326 326 325 313 311 313 314 314 322 324 324 322 322 322 320 319 318 317 315
341 349 353 349 351 353 353 354 354 351 348 346 346 335 344 343 342 338 334 318 319 319 323 324 324 324 324 313 313 316 321 324 324 322 323 323 323 322 320 319 318 316 316
350 349 340 340 345 353 350 351 352 351 349 348 344 343 345 343 341 338 335 320 317 317 321 324 323 322 316 314 320 322 323 323 324 324 324 323 322 322 320 319 318 317 317
348 348 340 340 339 349 351 348 347 348 347 346 343 343 340 340 339 338 336 329 320 317 319 321 319 319 319 320 320 320 322 324 325 324 325 323 323 322 321 319 318 318 317
348 346 345 344 341 341 344 345 346 345 345 342 342 341 339 337 336 336 335 330 318 315 316 318 322 322 321 321 320 319 320 322 322 324 323 324 323 322 321 319 318 317 316
350 347 348 346 343 342 341 341 342 343 343 343 339 340 338 334 336 335 334 331 322 312 313 319 322 322 322 321 321 320 320 322 323 322 321 321 321 322 320 319 318 317 316
349 347 344 343 339 337 337 336 335 338 339 339 340 338 334 336 334 333 331 328 323 312 313 317 322 324 323 321 322 321 321 322 322 322 322 324 323 321 320 319 318 316 316
347 345 344 338 336 333 335 336 334 334 336 337 337 337 334 336 335 333 331 331 321 311 312 317 320 322 321 321 323 323 322 322 322 322 323 322 322 321 320 318 316 317 316
345 346 342 336 334 333 335 336 336 331 332 333 333 334 335 335 334 334 332 328 313 315 316 318 320 320 320 321 322 322 322 322 323 323 322 321 322 322 319 318 318 317 315
345 343 341 336 333 334 334 336 335 331 330 333 334 335 334 333 332 333 331 318 316 317 319 320 321 322 322 322 322 322 322 322 322 322 323 322 321 320 319 319 317 316 314
343 342 341 338 336 333 334 337 336 333 332 334 335 335 334 332 332 329 324 324 317 316 321 323 323 323 323 322 321 321 322 323 322 323 322 320 320 320 319 318 317 315 311
337 342 342 339 336 335 335 336 336 334 333 332 331 333 334 330 323 324 319 317 316 320 321 323 323 322 322 321 322 323 323 323 322 323 320 318 319 319 319 318 316 315 311
342 341 342 339 337 336 334 334 336 335 334 332 329 327 336 332 323 321 319 320 324 324 324 322 322 321 321 321 322 322 322 323 321 319 318 319 319 319 318 318 316 315 309
Wind_Speed
24 25 24 23 21 23 25 24 18 16 18 17 13 14 13 12 10 11 9 6 3 6 2 7 5 9 8 7 7 6 6 4 5 4 5 11 9 13 13 9 9 11 15
24 25 24 24 23 23 27 24 22 22 22 17 15 15 16 16 13 12 9 6 4 5 6 8 8 7 7 5 6 2 6 8 5 7 3 7 12 11 14 16 14 7 15
24 27 28 27 27 26 23 25 22 22 20 19 17 15 16 17 15 13 13 9 7 5 6 7 7 7 6 9 7 8 9 10 6 6 8 2 8 11 8 9 9 11 10
25 28 29 30 28 27 26 24 24 23 21 19 18 16 17 17 18 17 12 9 8 8 7 7 7 6 7 8 8 7 15 12 10 7 6 8 6 8 6 8 11 9 6
22 22 24 27 27 24 25 24 26 28 23 22 20 17 20 22 21 17 14 10 11 11 10 10 7 6 6 7 9 12 12 7 9 6 7 4 3 7 10 10 5 11 3
17 15 18 23 26 27 25 26 29 27 25 24 22 21 23 24 21 17 13 14 16 13 13 10 7 8 9 9 6 7 10 11 11 10 6 5 4 5 11 12 10 13 11
19 22 21 18 23 27 26 29 30 26 27 26 26 23 23 21 19 16 21 17 15 14 13 11 10 11 11 9 9 9 8 6 7 4 2 1 4 10 13 12 7 10 11
21 26 26 29 28 27 26 28 27 28 29 31 28 24 22 22 21 21 23 18 16 16 12 16 16 10 10 10 8 5 3 2 4 2 2 4 8 12 12 11 9 10 12
18 23 24 26 23 27 26 26 24 30 29 28 31 27 26 24 23 26 25 21 19 19 18 18 13 15 10 9 12 7 6 3 2 2 5 5 7 10 13 13 14 18 15
11 20 28 30 29 24 22 21 19 28 31 34 30 29 28 24 26 30 26 22 23 22 21 21 16 13 11 12 13 9 6 9 3 4 2 4 5 8 12 11 15 20 16
10 16 17 22 31 32 27 25 25 28 32 34 30 29 26 25 27 32 28 24 23 23 23 22 18 14 12 13 13 12 12 9 8 5 3 8 2 7 8 14 21 19 18
10 16 20 22 22 25 30 31 30 29 32 34 35 21 17 25 27 34 31 27 23 23 19 16 14 13 10 11 13 12 11 8 6 3 6 3 4 6 11 17 15 15 18
16 17 19 21 23 25 28 31 32 32 34 32 26 22 26 30 33 34 34 31 27 23 19 14 12 10 11 9 11 10 11 9 5 2 7 4 7 11 11 13 14 16 17
18 19 18 22 22 23 25 32 34 38 39 38 38 28 37 41 38 35 39 34 32 29 26 24 20 16 10 10 12 10 9 9 8 9 8 9 7 8 11 13 14 16 18
18 14 18 20 18 22 25 29 35 38 36 38 39 36 38 42 39 38 42 43 38 34 28 24 21 18 15 14 11 8 8 7 6 4 5 5 9 10 12 13 18 15 15
15 15 16 18 17 19 22 24 35 40 41 42 37 34 35 36 36 29 40 43 38 35 30 24 20 20 16 13 8 8 11 11 13 10 8 9 9 11 11 16 16 17 18
13 14 16 16 17 17 20 27 30 39 45 45 42 35 28 29 29 25 32 39 37 34 32 22 14 15 12 11 12 13 12 13 16 11 10 12 9 11 12 13 16 18 16
12 12 17 16 14 16 20 24 29 37 40 41 44 42 34 27 22 23 24 35 37 35 32 22 19 16 13 14 14 14 11 9 8 8 9 10 12 14 14 15 16 17 23
12 12 15 14 18 17 19 20 28 38 43 43 38 40 34 24 22 23 26 28 36 36 31 22 20 17 16 14 14 14 13 12 12 12 14 16 13 14 15 14 16 18 19
16 18 19 20 18 12 13 16 20 30 42 41 40 39 36 33 32 32 31 28 29 33 31 26 23 18 16 13 15 15 13 12 13 15 13 10 12 15 14 15 15 22 18
16 21 20 15 13 8 10 12 17 22 33 38 37 35 35 36 31 34 33 30 31 31 29 27 24 20 18 15 15 14 11 13 14 12 12 13 16 14 14 19 20 15 16
17 18 21 16 15 11 13 17 16 18 26 24 25 30 31 30 30 33 33 32 32 27 24 21 20 18 18 18 17 14 14 12 10 10 10 10 9 14 14 15 12 15 16
22 24 22 18 11 7 12 11 11 13 19 21 20 24 30 30 31 33 35 38 35 30 25 23 21 20 18 18 15 15 13 11 9 9 5 7 9 10 11 14 14 13 16
24 27 22 19 11 8 12 10 11 11 15 23 20 21 27 30 32 32 33 31 26 31 28 26 24 21 19 18 17 15 15 14 12 10 9 11 12 11 11 15 16 11 14
29 29 24 20 19 10 8 12 12 17 22 20 18 21 30 31 25 25 24 23 28 24 24 23 22 20 20 18 16 15 9 10 13 13 11 12 14 14 14 12 9 13 14
22 23 25 22 21 19 13 11 18 24 27 29 25 18 31 34 30 26 29 28 24 26 26 22 23 21 21 20 19 19 16 14 13 12 12 14 14 13 10 11 13 15 11
Wind_Direction
221 222 219 222 222 208 217 226 229 212 216 230 231 227 219 208 217 184 212 256 251 206 217 171 168 141 137 137 144 155 171 133 165 71 30 32 35 44 44 58 33 358 349
211 213 221 221 223 222 219 225 226 215 225 232 235 222 217 211 214 215 206 242 244 187 160 148 146 138 122 119 131 114 138 129 151 129 57 29 30 29 22 27 44 30 329
211 213 223 226 223 229 225 220 228 220 228 225 224 221 214 211 209 216 213 224 236 200 171 159 154 159 155 147 126 106 120 108 94 84 73 69 35 28 48 2 13 3 10
215 215 215 225 230 224 227 223 221 221 223 220 223 214 212 208 212 224 217 228 225 196 178 168 160 154 149 142 144 126 104 91 107 108 86 90 62 40 4 2 23 344 0
212 219 218 223 229 235 226 228 214 222 224 218 216 211 210 213 221 220 214 216 197 184 180 179 164 148 135 135 138 142 132 148 139 122 127 120 35 25 349 358 351 326 37
215 215 209 218 220 232 232 222 221 229 223 215 212 212 209 215 224 207 208 192 187 185 186 173 165 157 155 151 145 158 152 162 153 113 109 48 24 335 354 3 346 -0 15
217 215 209 216 228 230 227 218 222 225 226 218 214 212 211 212 211 210 187 185 188 186 184 171 170 162 151 147 138 131 137 154 166 191 145 300 340 348 347 351 0 353 355
217 225 230 231 235 233 227 226 226 226 220 222 217 212 203 213 212 207 194 200 192 182 179 164 169 189 166 155 130 101 87 75 64 61 246 333 357 5 10 7 3 351 347
232 220 225 219 230 235 220 214 219 221 220 222 223 208 207 212 211 196 199 198 196 186 179 182 183 203 186 170 149 166 159 214 323 351 3 37 25 16 2 358 355 353 336
275 256 242 261 248 234 232 228 228 228 225 220 225 215 209 213 203 195 199 195 194 193 183 184 193 189 179 175 165 168 171 184 212 285 46 330 334 9 356 343 337 334 330
268 270 275 265 254 254 245 255 247 231 232 222 216 205 212 211 208 200 199 194 205 192 189 191 190 190 183 187 193 189 195 212 239 220 343 329 5 14 351 335 334 335 343
278 277 275 272 264 258 254 252 236 233 223 212 196 197 226 223 217 209 197 192 211 192 187 193 191 184 190 198 203 209 222 226 233 217 330 318 303 306 310 314 320 332 337
295 270 279 275 266 258 249 240 236 233 221 199 173 179 229 237 222 216 200 191 202 188 188 196 209 204 217 216 207 215 221 228 214 211 312 272 310 316 318 331 327 329 332
290 293 273 266 268 256 245 245 246 238 232 223 219 226 210 219 218 210 201 191 195 193 190 193 199 197 217 215 202 204 217 236 212 266 255 292 310 299 315 325 325 319 325
284 282 274 281 269 263 263 250 244 243 240 234 233 216 207 211 225 207 202 197 197 199 194 193 192 202 216 215 206 211 196 208 216 254 249 276 291 299 318 320 322 328 322
274 271 276 280 278 263 263 262 241 235 228 225 210 210 213 226 228 217 209 203 200 201 203 199 198 215 212 196 176 209 222 232 240 243 260 258 285 296 311 320 325 320 321
266 270 279 280 273 269 262 252 249 233 226 215 213 206 201 212 215 218 207 211 208 202 203 201 199 196 180 180 211 231 234 249 241 229 252 276 267 286 309 317 320 322 319
280 280 281 293 284 268 264 263 258 248 240 234 229 216 217 228 231 217 205 207 201 201 203 191 195 206 192 201 212 221 218 243 268 262 267 272 274 302 309 311 319 320 316
251 272 274 266 278 274 271 272 269 257 245 237 228 224 221 215 204 203 202 200 196 199 197 189 197 202 204 209 215 216 222 231 240 257 269 269 271 282 300 305 306 318 317
251 261 266 270 276 275 273 274 276 259 243 230 232 224 203 190 189 194 198 199 202 198 194 193 196 204 210 210 217 214 222 240 255 264 265 250 273 302 294 295 301 315 310
262 269 268 268 233 270 301 306 310 269 239 230 225 219 204 193 193 194 198 205 202 195 203 198 196 204 207 208 209 206 231 242 252 251 238 269 299 284 283 310 316 311 308
258 253 269 249 236 267 300 302 302 261 239 222 214 186 191 199 206 208 204 198 194 193 197 198 198 198 201 205 213 225 222 238 248 238 265 298 294 278 308 313 304 303 313
261 254 267 250 242 285 316 299 292 238 235 203 199 198 209 212 209 204 197 194 196 185 191 207 202 206 207 205 221 221 226 235 253 257 253 270 290 296 299 299 300 300 308
256 254 260 245 226 284 314 281 279 228 223 202 214 202 191 188 196 199 199 205 194 190 192 198 208 202 204 207 214 231 233 234 225 226 244 289 289 285 280 276 292 304 310
257 249 252 249 222 247 279 274 251 214 191 190 204 196 190 184 190 193 187 190 193 194 192 197 201 203 200 212 214 225 242 211 221 229 270 296 305 280 279 289 295 290 306
259 253 252 256 231 223 228 234 203 192 187 188 189 195 192 189 186 197 197 198 190 195 199 198 198 206 210 216 225 228 237 246 254 268 278 294 293 277 264 263 271 293 322